"Pseudo-MPEC" for P115Xwu

Created 2020 Sep 19 21:07:22 UT using Find_Orb

Click here for an explanation of pseudo-MPECs

 
 Astrometry: 
     P115Xwu  C2020 09 13W%od_Astrometrylredacted;17click1p9O:k4Fa5=:2qHN\Am\F51
     P115Xwu  C2020 09 13`,Oe:$n%Yu/.6Tv6;2-0D$2r:S?vq%]!E_;hereI-@?Apfor(O,\F51
     P115Xwu  C2020 09 13vR8)6aNc!\(Q-b4.-M#05D*V:f_#explanationeP/W3KntSWO59F51

Station data:
(F51) Pan-STARRS 1, Haleakala  (N20.707235 W156.255910)  US/Hawaii.
   Observers N. Primak, A. Schultz, S. Watters, J. Thiel, T. Goggia. Measurer
   PS1 Science Consortium. 1.8-m Ritchey-Chrétien + CCD.

Orbital elements:  P115Xwu
   Perihelion 2020 Jul 30.566567 +/- 35.4 TT = 13:35:51 (JD 2459061.066567)
Epoch 2020 Sep 13.0 TT = JDT 2459105.5   Earth MOID: 0.0109   AutoNEOCP
M  36.09739060 +/- 23               (J2000 ecliptic)
n   0.81239257 +/- 0.424            Peri.  140.57151 +/- 60
a   1.13751924 +/- 0.395            Node   165.01760 +/- 31
e   0.1035768 +/- 0.247             Incl.    0.96787 +/- 1.4
P   1.21/443.13d           H 28.0   G  0.15   U 12.2  SR
q 1.01969856 +/- 0.315    Q 1.25533992 +/- 42.5
From 3 observations 2020 Sept. 13 (54.7 min); mean residual 0".07
Residuals in arcseconds: 
200913 F51  .05+  .09-    200913 F51  .07-  .13+    200913 F51  .02+  .04-    

Ephemerides (geocentric):
Date (UTC) HH   RA              Dec         delta   r     elong  mag " sig PA
---- -- -- --  -------------   -----------  ------ ------ -----  --- ---- ---
2020 09 19 21  22 32 49.133   -12 55 54.28  .05516 1.0556 157.7 22.8  37d 174
2020 09 19 22  22 32 58.090   -12 55 32.93  .05523 1.0556 157.7 22.8  37d 174
2020 09 19 23  22 33 07.030   -12 55 11.56  .05530 1.0557 157.7 22.8  37d 174
2020 09 20 00  22 33 15.953   -12 54 50.17  .05537 1.0558 157.7 22.8  37d 174
2020 09 20 01  22 33 24.858   -12 54 28.77  .05545 1.0558 157.7 22.8  37d 174
2020 09 20 02  22 33 33.746   -12 54 07.35  .05552 1.0559 157.7 22.8  37d 174
2020 09 20 03  22 33 42.617   -12 53 45.91  .05559 1.0559 157.7 22.8  37d 174
2020 09 20 04  22 33 51.471   -12 53 24.46  .05567 1.0560 157.7 22.8  37d 174
2020 09 20 05  22 34 00.309   -12 53 02.99  .05574 1.0560 157.6 22.8  37d 174
2020 09 20 06  22 34 09.129   -12 52 41.50  .05581 1.0561 157.6 22.8  37d 174
2020 09 20 07  22 34 17.932   -12 52 20.00  .05588 1.0561 157.6 22.9  37d 173
2020 09 20 08  22 34 26.718   -12 51 58.48  .05596 1.0562 157.6 22.9  37d 173
2020 09 20 09  22 34 35.488   -12 51 36.94  .05603 1.0562 157.6 22.9  38d 173
2020 09 20 10  22 34 44.241   -12 51 15.38  .05610 1.0563 157.6 22.9  38d 173
2020 09 20 11  22 34 52.978   -12 50 53.81  .05618 1.0563 157.6 22.9  38d 173
2020 09 20 12  22 35 01.697   -12 50 32.23  .05625 1.0564 157.6 22.9  38d 173
2020 09 20 13  22 35 10.401   -12 50 10.62  .05632 1.0565 157.6 22.9  38d 173
2020 09 20 14  22 35 19.087   -12 49 49.00  .05640 1.0565 157.6 22.9  38d 173
2020 09 20 15  22 35 27.758   -12 49 27.37  .05647 1.0566 157.6 22.9  38d 173
2020 09 20 16  22 35 36.412   -12 49 05.71  .05654 1.0566 157.6 22.9  38d 173
2020 09 20 17  22 35 45.049   -12 48 44.04  .05662 1.0567 157.6 22.9  38d 173
2020 09 20 18  22 35 53.671   -12 48 22.36  .05669 1.0567 157.6 22.9  38d 173
2020 09 20 19  22 36 02.276   -12 48 00.66  .05677 1.0568 157.6 22.9  38d 173
2020 09 20 20  22 36 10.865   -12 47 38.94  .05684 1.0568 157.5 22.9  38d 173
2020 09 20 21  22 36 19.438   -12 47 17.20  .05691 1.0569 157.5 22.9  38d 173
2020 09 20 22  22 36 27.994   -12 46 55.45  .05699 1.0569 157.5 22.9  38d 173
2020 09 20 23  22 36 36.535   -12 46 33.69  .05706 1.0570 157.5 22.9  38d 173
2020 09 21 00  22 36 45.060   -12 46 11.91  .05713 1.0571 157.5 22.9  39d 173
2020 09 21 01  22 36 53.569   -12 45 50.11  .05721 1.0571 157.5 22.9  39d 173
2020 09 21 02  22 37 02.062   -12 45 28.29  .05728 1.0572 157.5 22.9  39d 173
2020 09 21 03  22 37 10.539   -12 45 06.46  .05736 1.0572 157.5 22.9  39d 173
2020 09 21 04  22 37 19.001   -12 44 44.62  .05743 1.0573 157.5 22.9  39d 173
2020 09 21 05  22 37 27.447   -12 44 22.75  .05751 1.0573 157.5 22.9  39d 173
2020 09 21 06  22 37 35.877   -12 44 00.88  .05758 1.0574 157.5 22.9  39d 173
2020 09 21 07  22 37 44.292   -12 43 38.98  .05766 1.0574 157.5 22.9  39d 173
2020 09 21 08  22 37 52.691   -12 43 17.07  .05773 1.0575 157.5 22.9  39d 173
2020 09 21 09  22 38 01.074   -12 42 55.15  .05780 1.0575 157.4 22.9  39d 173
2020 09 21 10  22 38 09.442   -12 42 33.21  .05788 1.0576 157.4 22.9  39d 173
2020 09 21 11  22 38 17.795   -12 42 11.25  .05795 1.0577 157.4 22.9  39d 173
2020 09 21 12  22 38 26.132   -12 41 49.28  .05803 1.0577 157.4 22.9  39d 173
2020 09 21 13  22 38 34.455   -12 41 27.29  .05810 1.0578 157.4 22.9  39d 173
2020 09 21 14  22 38 42.761   -12 41 05.29  .05818 1.0578 157.4 22.9  39d 173
2020 09 21 15  22 38 51.053   -12 40 43.27  .05825 1.0579 157.4 22.9  39d 173
2020 09 21 16  22 38 59.330   -12 40 21.24  .05833 1.0579 157.4 23.0  40d 173
2020 09 21 17  22 39 07.591   -12 39 59.19  .05840 1.0580 157.4 23.0  40d 173
2020 09 21 18  22 39 15.837   -12 39 37.13  .05848 1.0580 157.4 23.0  40d 173
2020 09 21 19  22 39 24.069   -12 39 15.05  .05856 1.0581 157.4 23.0  40d 173
2020 09 21 20  22 39 32.285   -12 38 52.95  .05863 1.0582 157.4 23.0  40d 173